Change the Weather History Date:

Friday, March 21, 2014

  Actual Average Record
Temperature  
Mean Temperature 29 °F 34 °F  
Max Temperature 39 °F 46 °F 66 °F (2009)
Min Temperature 18 °F 22 °F -16 °F (1955)
Degree Days  
Heating Degree Days 36 31  
Month to date heating degree days 654 716  
Since 1 July heating degree days 6418 6673  
Cooling Degree Days 0 0  
Month to date cooling degree days 0 0  
Year to date cooling degree days 0 0  
Moisture  
Dew Point 16 °F    
Average Humidity 61    
Maximum Humidity 84    
Minimum Humidity 37    
Precipitation  
Precipitation 0.00 in 0.03 in 0.14 in (2001)
Month to date precipitation 0.35 0.42  
Year to date precipitation 0.81 1.20  
Sea Level Pressure  
Sea Level Pressure 30.02 in    
Wind  
Wind Speed 8 mph (NNE)    
Max Wind Speed 23 mph    
Max Gust Speed 29 mph    
Visibility 10 miles    
Events      
T = Trace of Precipitation, MM = Missing Value Source: NWS Daily Summary

Daily Weather History Graph

Daily Weather History Graph

Search for Another Location

Airport or City:

Trip Planner

Search our weather history database for the weather conditions in past years. The results will help you decide how hot, cold, wet, or windy it might be!

Date:

Astronomy

Mar. 21, 2014 Rise Set
Actual Time 7:10 AM MDT 7:22 PM MDT
Civil Twilight 6:42 AM MDT 7:50 PM MDT
Nautical Twilight 6:09 AM MDT 8:22 PM MDT
Astronomical Twilight 5:36 AM MDT 8:55 PM MDT
Moon No Moon Rise 10:00 AM MDT (3/21)
Length of Visible Light 13h 07m
Length of Day
12h 11m
Waning Gibbous, 75% of the Moon is Illuminated
Mar 21
Waning Gibbous
Mar 23
Last Quarter
Mar 30
New
Apr 7
First Quarter
Apr 15
Full

Hourly Weather History & Observations

Time (MDT) Temp. Windchill Dew Point Humidity Pressure Visibility Wind Dir Wind Speed Gust Speed Precip Events Conditions
12:53 AM 35.1 °F 26.4 °F 14.0 °F 42% 29.86 in 10.0 mi West 12.7 mph 25.3 mph N/A   Clear
1:53 AM 35.1 °F 23.8 °F 14.0 °F 42% 29.85 in 10.0 mi West 20.7 mph 28.8 mph N/A   Clear
2:53 AM 33.1 °F 23.0 °F 15.1 °F 48% 29.85 in 10.0 mi West 15.0 mph - N/A   Clear
3:53 AM 25.0 °F 14.8 °F 18.0 °F 75% 29.91 in 10.0 mi North 10.4 mph - N/A   Clear
4:53 AM 21.9 °F 11.7 °F 17.1 °F 82% 29.94 in 10.0 mi North 9.2 mph - N/A   Clear
5:53 AM 21.0 °F 12.4 °F 17.1 °F 85% 29.97 in 10.0 mi NW 6.9 mph - N/A   Clear
6:53 AM 18.0 °F 8.7 °F 14.0 °F 84% 30.04 in 10.0 mi NNW 6.9 mph - N/A   Clear
7:53 AM 19.9 °F - 16.0 °F 85% 30.09 in 10.0 mi Calm Calm - N/A   Clear
8:53 AM 24.1 °F - 18.0 °F 77% 30.09 in 10.0 mi Calm Calm - N/A   Clear
9:53 AM 27.0 °F 23.0 °F 16.0 °F 63% 30.10 in 10.0 mi Variable 3.5 mph - N/A   Clear
10:53 AM 28.9 °F 25.2 °F 16.0 °F 58% 30.10 in 10.0 mi Variable 3.5 mph - N/A   Clear
11:53 AM 30.9 °F 24.3 °F 16.0 °F 54% 30.09 in 10.0 mi SSE 6.9 mph - N/A   Partly Cloudy
12:53 PM 30.9 °F 27.5 °F 15.1 °F 52% 30.08 in 10.0 mi Variable 3.5 mph - N/A   Clear
1:53 PM 35.1 °F 30.1 °F 14.0 °F 42% 30.03 in 10.0 mi NNE 5.8 mph - N/A   Clear
2:53 PM 37.9 °F 34.4 °F 15.1 °F 39% 30.00 in 10.0 mi Variable 4.6 mph - N/A   Clear
3:53 PM 39.0 °F 34.0 °F 15.1 °F 38% 30.02 in 10.0 mi ENE 6.9 mph - N/A   Clear
4:53 PM 37.9 °F - 14.0 °F 38% 30.04 in 10.0 mi Calm Calm - N/A   Clear
5:53 PM 35.1 °F 26.9 °F 16.0 °F 46% 30.06 in 10.0 mi ENE 11.5 mph - N/A   Clear
6:53 PM 33.1 °F 24.4 °F 15.1 °F 48% 30.09 in 10.0 mi NE 11.5 mph - N/A   Clear
7:53 PM 30.0 °F 21.7 °F 15.1 °F 54% 30.09 in 10.0 mi NE 9.2 mph - N/A   Clear
8:53 PM 27.0 °F 18.7 °F 15.1 °F 61% 30.10 in 10.0 mi ENE 8.1 mph - N/A   Clear
9:53 PM 27.0 °F 16.1 °F 15.1 °F 61% 30.07 in 10.0 mi NE 12.7 mph - N/A   Clear
10:53 PM 25.0 °F 13.6 °F 17.1 °F 72% 30.07 in 10.0 mi NE 12.7 mph - N/A   Clear
11:53 PM 24.1 °F 11.5 °F 17.1 °F 75% 30.05 in 10.0 mi NE 15.0 mph - N/A   Scattered Clouds